Retour au catalogue

INTELSAT 510

ActifCommunicationsGEO
NORAD 15629·PAYLOAD· XX

Lancé Mar 22, 1985 depuis Cape Canaveral Space Force Station

Loading…

TLE

FraisSource: Space-Track

Époque: Sep 14, 2026, 00:04 UTC

1 15629U 85025A   26257.00302976 -.00000213  00000-0  00000-0 0  9999
2 15629  13.6830 339.8486 0028797  20.5524 344.4984  0.98282897116050

Suivez INTELSAT 510 en temps réel avec AllMySat

Download on the App Store